Time,TemperatureF,DewpointF,PressureIn,WindDirection,WindDirectionDegrees,WindSpeedMPH,WindSpeedGustMPH,Humidity,HourlyPrecipIn,Conditions,Clouds,dailyrainin,SoftwareType,DateUTC
2013-03-01 00:00:00,54.8,45.6,30.36,NNW,337,5.0,7.0,71,0.00,,,0.00,WeatherCatV1.10B1784,2013-03-01 08:00:00,
2013-03-01 00:05:00,55.0,46.1,30.36,NNW,331,5.0,7.0,72,0.00,,,0.00,WeatherCatV1.10B1784,2013-03-01 08:05:00,
2013-03-01 00:10:00,55.3,46.4,30.36,NNW,331,8.0,8.0,72,0.00,,,0.00,WeatherCatV1.10B1784,2013-03-01 08:10:00,
2013-03-01 00:15:00,55.4,46.2,30.36,NNW,337,6.0,6.0,71,0.00,,,0.00,WeatherCatV1.10B1784,2013-03-01 08:15:00,
2013-03-01 00:20:00,55.5,46.2,30.36,NNW,341,4.0,6.0,71,0.00,,,0.00,WeatherCatV1.10B1784,2013-03-01 08:20:00,
2013-03-01 00:25:00,55.4,46.5,30.36,NNW,340,5.0,6.0,72,0.00,,,0.00,WeatherCatV1.10B1784,2013-03-01 08:25:00,
2013-03-01 00:30:00,55.3,46.4,30.36,NNW,333,4.0,6.0,72,0.00,,,0.00,WeatherCatV1.10B1784,2013-03-01 08:30:00,
2013-03-01 00:35:00,55.4,46.9,30.36,NNW,341,5.0,6.0,73,0.00,,,0.00,WeatherCatV1.10B1784,2013-03-01 08:35:00,
2013-03-01 00:40:00,55.4,46.9,30.36,NNW,343,4.0,7.0,73,0.00,,,0.00,WeatherCatV1.10B1784,2013-03-01 08:40:00,
2013-03-01 00:45:00,55.5,47.3,30.36,NNW,337,3.0,6.0,74,0.00,,,0.00,WeatherCatV1.10B1784,2013-03-01 08:45:00,
2013-03-01 00:50:00,55.6,47.4,30.36,NNW,335,3.0,3.0,74,0.00,,,0.00,WeatherCatV1.10B1784,2013-03-01 08:50:00,
2013-03-01 00:55:00,55.6,47.4,30.36,NNW,339,2.0,5.0,74,0.00,,,0.00,WeatherCatV1.10B1784,2013-03-01 08:55:00,
2013-03-01 01:00:00,55.5,47.3,30.36,NNW,338,3.0,5.0,74,0.00,,,0.00,WeatherCatV1.10B1784,2013-03-01 09:00:00,
2013-03-01 01:05:00,55.5,47.7,30.36,NNW,341,4.0,4.0,75,0.00,,,0.00,WeatherCatV1.10B1784,2013-03-01 09:05:00,
2013-03-01 01:10:00,55.5,47.7,30.36,NNW,338,4.0,4.0,75,0.00,,,0.00,WeatherCatV1.10B1784,2013-03-01 09:10:00,
2013-03-01 01:15:00,55.4,47.6,30.36,NNW,337,3.0,4.0,75,0.00,,,0.00,WeatherCatV1.10B1784,2013-03-01 09:15:00,
2013-03-01 01:20:00,55.2,47.8,30.36,NNW,348,2.0,4.0,76,0.00,,,0.00,WeatherCatV1.10B1784,2013-03-01 09:20:00,
2013-03-01 01:25:00,55.1,47.7,30.36,NNW,337,3.0,4.0,76,0.00,,,0.00,WeatherCatV1.10B1784,2013-03-01 09:25:00,
2013-03-01 01:30:00,55.0,47.9,30.36,NNW,340,4.0,4.0,77,0.00,,,0.00,WeatherCatV1.10B1784,2013-03-01 09:30:00,
2013-03-01 01:35:00,54.9,47.5,30.36,NNW,337,3.0,4.0,76,0.00,,,0.00,WeatherCatV1.10B1784,2013-03-01 09:35:00,
2013-03-01 01:40:00,54.6,47.5,30.36,NNW,331,4.0,5.0,77,0.00,,,0.00,WeatherCatV1.10B1784,2013-03-01 09:40:00,
2013-03-01 01:45:00,54.6,47.5,30.36,NNW,334,3.0,4.0,77,0.00,,,0.00,WeatherCatV1.10B1784,2013-03-01 09:45:00,
2013-03-01 01:50:00,54.5,47.4,30.36,NNW,335,3.0,5.0,77,0.00,,,0.00,WeatherCatV1.10B1784,2013-03-01 09:50:00,
2013-03-01 01:55:00,54.4,47.3,30.36,NNW,329,3.0,5.0,77,0.00,,,0.00,WeatherCatV1.10B1784,2013-03-01 09:55:00,
2013-03-01 02:00:00,54.5,47.4,30.36,NNW,336,4.0,5.0,77,0.00,,,0.00,WeatherCatV1.10B1784,2013-03-01 10:00:00,
2013-03-01 02:03:00,54.5,47.4,30.36,NNW,343,3.0,5.0,77,0.00,,,0.00,WeatherCatV1.10B1784,2013-03-01 10:03:00,
2013-03-01 02:08:00,54.6,47.5,30.36,NNW,339,3.0,5.0,77,0.00,,,0.00,WeatherCatV1.10B1784,2013-03-01 10:08:00,
2013-03-01 02:13:00,54.6,47.5,30.36,NNW,331,3.0,4.0,77,0.00,,,0.00,WeatherCatV1.10B1784,2013-03-01 10:13:00,
2013-03-01 02:18:00,54.6,47.5,30.36,NNW,332,3.0,5.0,77,0.00,,,0.00,WeatherCatV1.10B1784,2013-03-01 10:18:00,
2013-03-01 02:23:00,54.7,47.6,30.36,NNW,337,2.0,5.0,77,0.00,,,0.00,WeatherCatV1.10B1784,2013-03-01 10:23:00,
2013-03-01 02:28:00,54.8,47.7,30.36,NNW,331,4.0,4.0,77,0.00,,,0.00,WeatherCatV1.10B1784,2013-03-01 10:28:00,
2013-03-01 02:33:00,54.7,47.3,30.35,NNW,339,4.0,5.0,76,0.00,,,0.00,WeatherCatV1.10B1784,2013-03-01 10:33:00,
2013-03-01 02:38:00,54.7,47.3,30.35,NNW,332,3.0,4.0,76,0.00,,,0.00,WeatherCatV1.10B1784,2013-03-01 10:38:00,
2013-03-01 02:43:00,54.6,47.2,30.35,NNW,339,4.0,4.0,76,0.00,,,0.00,WeatherCatV1.10B1784,2013-03-01 10:43:00,
2013-03-01 02:48:00,54.6,47.5,30.35,NNW,338,1.0,2.0,77,0.00,,,0.00,WeatherCatV1.10B1784,2013-03-01 10:48:00,
2013-03-01 02:53:00,54.7,47.3,30.35,North,354,0.0,0.0,76,0.00,,,0.00,WeatherCatV1.10B1784,2013-03-01 10:53:00,
2013-03-01 02:58:00,54.7,47.3,30.35,North,354,0.0,0.0,76,0.00,,,0.00,WeatherCatV1.10B1784,2013-03-01 10:58:00,
2013-03-01 03:03:00,54.6,47.2,30.35,North,354,0.0,1.0,76,0.00,,,0.00,WeatherCatV1.10B1784,2013-03-01 11:03:00,
2013-03-01 03:08:00,54.5,47.4,30.35,North,354,0.0,0.0,77,0.00,,,0.00,WeatherCatV1.10B1784,2013-03-01 11:08:00,
2013-03-01 03:13:00,54.4,47.3,30.35,North,354,0.0,0.0,77,0.00,,,0.00,WeatherCatV1.10B1784,2013-03-01 11:13:00,
2013-03-01 03:18:00,54.4,47.0,30.35,North,354,0.0,0.0,76,0.00,,,0.00,WeatherCatV1.10B1784,2013-03-01 11:18:00,
2013-03-01 03:23:00,54.3,47.2,30.35,North,354,0.0,0.0,77,0.00,,,0.00,WeatherCatV1.10B1784,2013-03-01 11:23:00,
2013-03-01 03:28:00,54.1,47.0,30.35,North,353,0.0,1.0,77,0.00,,,0.00,WeatherCatV1.10B1784,2013-03-01 11:28:00,
2013-03-01 03:33:00,53.8,46.8,30.34,NNW,333,2.0,2.0,77,0.00,,,0.00,WeatherCatV1.10B1784,2013-03-01 11:33:00,
2013-03-01 03:38:00,53.9,46.9,30.34,NNW,334,3.0,3.0,77,0.00,,,0.00,WeatherCatV1.10B1784,2013-03-01 11:38:00,
2013-03-01 03:43:00,54.2,46.8,30.34,NNW,333,2.0,3.0,76,0.00,,,0.00,WeatherCatV1.10B1784,2013-03-01 11:43:00,
2013-03-01 03:48:00,54.6,46.8,30.34,NNW,337,1.0,4.0,75,0.00,,,0.00,WeatherCatV1.10B1784,2013-03-01 11:48:00,
2013-03-01 03:53:00,54.8,47.0,30.34,NNW,337,2.0,3.0,75,0.00,,,0.00,WeatherCatV1.10B1784,2013-03-01 11:53:00,
2013-03-01 03:58:00,54.6,46.8,30.34,NNW,337,2.0,2.0,75,0.00,,,0.00,WeatherCatV1.10B1784,2013-03-01 11:58:00,
2013-03-01 04:03:00,54.4,46.3,30.34,North,349,0.0,0.0,74,0.00,,,0.00,WeatherCatV1.10B1784,2013-03-01 12:03:00,
2013-03-01 04:08:00,54.4,46.3,30.34,North,349,0.0,0.0,74,0.00,,,0.00,WeatherCatV1.10B1784,2013-03-01 12:08:00,
2013-03-01 04:13:00,54.3,45.8,30.34,North,349,0.0,0.0,73,0.00,,,0.00,WeatherCatV1.10B1784,2013-03-01 12:13:00,
2013-03-01 04:18:00,54.3,45.8,30.34,North,349,0.0,0.0,73,0.00,,,0.00,WeatherCatV1.10B1784,2013-03-01 12:18:00,
2013-03-01 04:23:00,54.2,46.1,30.34,North,349,0.0,0.0,74,0.00,,,0.00,WeatherCatV1.10B1784,2013-03-01 12:23:00,
2013-03-01 04:28:00,54.1,46.0,30.34,North,349,0.0,0.0,74,0.00,,,0.00,WeatherCatV1.10B1784,2013-03-01 12:28:00,
2013-03-01 04:33:00,54.1,46.0,30.34,North,349,0.0,0.0,74,0.00,,,0.00,WeatherCatV1.10B1784,2013-03-01 12:33:00,
2013-03-01 04:38:00,54.1,46.0,30.34,North,349,0.0,0.0,74,0.00,,,0.00,WeatherCatV1.10B1784,2013-03-01 12:38:00,
2013-03-01 04:43:00,54.1,46.0,30.34,North,349,0.0,0.0,74,0.00,,,0.00,WeatherCatV1.10B1784,2013-03-01 12:43:00,
2013-03-01 04:48:00,54.1,46.0,30.34,NNW,345,1.0,2.0,74,0.00,,,0.00,WeatherCatV1.10B1784,2013-03-01 12:48:00,
2013-03-01 04:53:00,54.2,46.1,30.34,NNW,338,0.0,1.0,74,0.00,,,0.00,WeatherCatV1.10B1784,2013-03-01 12:53:00,
2013-03-01 04:58:00,54.3,46.2,30.34,NNW,338,0.0,1.0,74,0.00,,,0.00,WeatherCatV1.10B1784,2013-03-01 12:58:00,
2013-03-01 05:03:00,54.3,45.8,30.33,NNW,337,1.0,2.0,73,0.00,,,0.00,WeatherCatV1.10B1784,2013-03-01 13:03:00,
2013-03-01 05:08:00,54.3,45.8,30.33,NNW,335,3.0,3.0,73,0.00,,,0.00,WeatherCatV1.10B1784,2013-03-01 13:08:00,
2013-03-01 05:13:00,54.4,46.3,30.33,NNW,341,2.0,3.0,74,0.00,,,0.00,WeatherCatV1.10B1784,2013-03-01 13:13:00,
2013-03-01 05:18:00,54.5,46.4,30.32,NNW,334,1.0,2.0,74,0.00,,,0.00,WeatherCatV1.10B1784,2013-03-01 13:18:00,
2013-03-01 05:23:00,54.8,46.3,30.32,NE,41,2.0,3.0,73,0.00,,,0.00,WeatherCatV1.10B1784,2013-03-01 13:23:00,
2013-03-01 05:28:00,55.1,46.2,30.32,NNW,340,0.0,3.0,72,0.00,,,0.00,WeatherCatV1.10B1784,2013-03-01 13:28:00,
2013-03-01 05:33:00,55.1,46.2,30.32,NNW,337,4.0,4.0,72,0.00,,,0.00,WeatherCatV1.10B1784,2013-03-01 13:33:00,
2013-03-01 05:38:00,54.9,46.4,30.32,NNW,348,3.0,4.0,73,0.00,,,0.00,WeatherCatV1.10B1784,2013-03-01 13:38:00,
2013-03-01 05:43:00,54.8,46.3,30.32,NNW,336,3.0,4.0,73,0.00,,,0.00,WeatherCatV1.10B1784,2013-03-01 13:43:00,
2013-03-01 05:48:00,54.6,46.5,30.32,NNW,343,3.0,4.0,74,0.00,,,0.00,WeatherCatV1.10B1784,2013-03-01 13:48:00,
2013-03-01 05:53:00,54.6,46.1,30.32,NNW,337,3.0,4.0,73,0.00,,,0.00,WeatherCatV1.10B1784,2013-03-01 13:53:00,
2013-03-01 05:58:00,54.7,46.6,30.32,NNW,337,4.0,4.0,74,0.00,,,0.00,WeatherCatV1.10B1784,2013-03-01 13:58:00,
2013-03-01 06:03:00,54.5,46.4,30.31,NNW,334,3.0,4.0,74,0.00,,,0.00,WeatherCatV1.10B1784,2013-03-01 14:03:00,
2013-03-01 06:08:00,54.4,46.3,30.31,North,353,4.0,5.0,74,0.00,,,0.00,WeatherCatV1.10B1784,2013-03-01 14:08:00,
2013-03-01 06:13:00,54.4,46.3,30.31,NW,323,3.0,5.0,74,0.00,,,0.00,WeatherCatV1.10B1784,2013-03-01 14:13:00,
2013-03-01 06:18:00,54.4,46.3,30.31,NNW,331,4.0,5.0,74,0.00,,,0.00,WeatherCatV1.10B1784,2013-03-01 14:18:00,
2013-03-01 06:23:00,54.5,46.0,30.31,NNW,333,4.0,4.0,73,0.00,,,0.00,WeatherCatV1.10B1784,2013-03-01 14:23:00,
2013-03-01 06:28:00,54.5,46.0,30.31,NNW,340,5.0,5.0,73,0.00,,,0.00,WeatherCatV1.10B1784,2013-03-01 14:28:00,
2013-03-01 06:33:00,54.5,45.7,30.31,NNW,334,3.0,4.0,72,0.00,,,0.00,WeatherCatV1.10B1784,2013-03-01 14:33:00,
2013-03-01 06:38:00,54.5,45.3,30.31,NNW,346,4.0,4.0,71,0.00,,,0.00,WeatherCatV1.10B1784,2013-03-01 14:38:00,
2013-03-01 06:43:00,54.6,45.4,30.31,NNW,347,4.0,4.0,71,0.00,,,0.00,WeatherCatV1.10B1784,2013-03-01 14:43:00,
2013-03-01 06:48:00,54.6,45.0,30.31,NNW,340,4.0,5.0,70,0.00,,,0.00,WeatherCatV1.10B1784,2013-03-01 14:48:00,
2013-03-01 06:53:00,54.6,45.0,30.31,NNW,336,3.0,5.0,70,0.00,,,0.00,WeatherCatV1.10B1784,2013-03-01 14:53:00,
2013-03-01 06:58:00,54.5,44.9,30.31,NNW,332,5.0,6.0,70,0.00,,,0.00,WeatherCatV1.10B1784,2013-03-01 14:58:00,
2013-03-01 07:03:00,54.6,45.0,30.31,NW,324,5.0,5.0,70,0.00,,,0.00,WeatherCatV1.10B1784,2013-03-01 15:03:00,
2013-03-01 07:08:00,54.8,44.8,30.31,NNW,337,6.0,6.0,69,0.00,,,0.00,WeatherCatV1.10B1784,2013-03-01 15:08:00,
2013-03-01 07:13:00,55.2,44.8,30.31,NW,306,8.0,8.0,68,0.00,,,0.00,WeatherCatV1.10B1784,2013-03-01 15:13:00,
2013-03-01 07:18:00,55.7,44.9,30.30,NNW,342,7.0,9.0,67,0.00,,,0.00,WeatherCatV1.10B1784,2013-03-01 15:18:00,
2013-03-01 07:23:00,56.0,44.8,30.30,NNW,342,8.0,8.0,66,0.00,,,0.00,WeatherCatV1.10B1784,2013-03-01 15:23:00,
2013-03-01 07:28:00,56.2,45.0,30.30,North,350,5.0,7.0,66,0.00,,,0.00,WeatherCatV1.10B1784,2013-03-01 15:28:00,
2013-03-01 07:33:00,56.3,45.1,30.30,NNW,336,7.0,7.0,66,0.00,,,0.00,WeatherCatV1.10B1784,2013-03-01 15:33:00,
2013-03-01 07:38:00,56.5,44.9,30.30,NNW,331,7.0,7.0,65,0.00,,,0.00,WeatherCatV1.10B1784,2013-03-01 15:38:00,
2013-03-01 07:43:00,56.6,44.6,30.30,NNW,340,7.0,9.0,64,0.00,,,0.00,WeatherCatV1.10B1784,2013-03-01 15:43:00,
2013-03-01 07:48:00,56.9,44.8,30.30,NNW,337,6.0,9.0,64,0.00,,,0.00,WeatherCatV1.10B1784,2013-03-01 15:48:00,
2013-03-01 07:53:00,57.2,44.3,30.30,NNW,343,6.0,8.0,62,0.00,,,0.00,WeatherCatV1.10B1784,2013-03-01 15:53:00,
2013-03-01 07:58:00,57.6,44.7,30.30,NW,325,8.0,11.0,62,0.00,,,0.00,WeatherCatV1.10B1784,2013-03-01 15:58:00,
2013-03-01 08:03:00,57.9,44.5,30.29,NW,324,8.0,9.0,61,0.00,,,0.00,WeatherCatV1.10B1784,2013-03-01 16:03:00,
2013-03-01 08:08:00,58.2,44.4,30.29,NNW,337,6.0,8.0,60,0.00,,,0.00,WeatherCatV1.10B1784,2013-03-01 16:08:00,
2013-03-01 08:13:00,58.6,44.3,30.29,NW,324,5.0,10.0,59,0.00,,,0.00,WeatherCatV1.10B1784,2013-03-01 16:13:00,
2013-03-01 08:18:00,59.0,44.7,30.29,NNW,343,7.0,10.0,59,0.00,,,0.00,WeatherCatV1.10B1784,2013-03-01 16:18:00,
2013-03-01 08:23:00,59.2,44.4,30.29,NNW,335,4.0,6.0,58,0.00,,,0.00,WeatherCatV1.10B1784,2013-03-01 16:23:00,
2013-03-01 08:28:00,59.6,44.8,30.29,NNW,345,2.0,7.0,58,0.00,,,0.00,WeatherCatV1.10B1784,2013-03-01 16:28:00,
2013-03-01 08:33:00,59.9,44.6,30.30,NNW,335,0.0,3.0,57,0.00,,,0.00,WeatherCatV1.10B1784,2013-03-01 16:33:00,
2013-03-01 08:38:00,60.3,44.5,30.30,NNE,30,0.0,6.0,56,0.00,,,0.00,WeatherCatV1.10B1784,2013-03-01 16:38:00,
2013-03-01 08:43:00,60.9,44.6,30.30,South,177,3.0,3.0,55,0.00,,,0.00,WeatherCatV1.10B1784,2013-03-01 16:43:00,
2013-03-01 08:48:00,61.2,46.8,30.31,SSE,158,0.0,0.0,59,0.00,,,0.00,WeatherCatV1.10B1784,2013-03-01 16:48:00,
2013-03-01 08:53:00,61.4,47.4,30.31,SE,135,0.0,1.0,60,0.00,,,0.00,WeatherCatV1.10B1784,2013-03-01 16:53:00,
2013-03-01 08:58:00,61.6,48.0,30.31,SE,134,0.0,1.0,61,0.00,,,0.00,WeatherCatV1.10B1784,2013-03-01 16:58:00,
2013-03-01 09:03:00,62.1,48.0,30.31,SE,134,0.0,1.0,60,0.00,,,0.00,WeatherCatV1.10B1784,2013-03-01 17:03:00,
2013-03-01 09:08:00,62.4,48.3,30.31,SSE,150,1.0,2.0,60,0.00,,,0.00,WeatherCatV1.10B1784,2013-03-01 17:08:00,
2013-03-01 09:13:00,62.7,48.6,30.31,SSE,151,0.0,0.0,60,0.00,,,0.00,WeatherCatV1.10B1784,2013-03-01 17:13:00,
2013-03-01 09:18:00,62.7,48.6,30.31,SSE,160,1.0,3.0,60,0.00,,,0.00,WeatherCatV1.10B1784,2013-03-01 17:18:00,
2013-03-01 09:23:00,62.8,47.8,30.31,SSE,160,0.0,1.0,58,0.00,,,0.00,WeatherCatV1.10B1784,2013-03-01 17:23:00,
2013-03-01 09:28:00,63.0,48.9,30.31,SSE,165,1.0,2.0,60,0.00,,,0.00,WeatherCatV1.10B1784,2013-03-01 17:28:00,
2013-03-01 09:33:00,62.8,48.7,30.31,SSE,165,0.0,0.0,60,0.00,,,0.00,WeatherCatV1.10B1784,2013-03-01 17:33:00,
2013-03-01 09:38:00,62.7,49.1,30.31,SSE,167,0.0,2.0,61,0.00,,,0.00,WeatherCatV1.10B1784,2013-03-01 17:38:00,
2013-03-01 09:43:00,62.9,49.2,30.31,SSE,154,1.0,1.0,61,0.00,,,0.00,WeatherCatV1.10B1784,2013-03-01 17:43:00,
2013-03-01 09:48:00,62.9,48.3,30.30,SSE,154,0.0,0.0,59,0.00,,,0.00,WeatherCatV1.10B1784,2013-03-01 17:48:00,
2013-03-01 09:53:00,62.8,49.6,30.30,SSE,154,0.0,0.0,62,0.00,,,0.00,WeatherCatV1.10B1784,2013-03-01 17:53:00,
2013-03-01 09:58:00,63.3,48.7,30.30,SSE,155,0.0,1.0,59,0.00,,,0.00,WeatherCatV1.10B1784,2013-03-01 17:58:00,
2013-03-01 10:03:00,63.8,48.7,30.30,SSE,148,1.0,2.0,58,0.00,,,0.00,WeatherCatV1.10B1784,2013-03-01 18:03:00,
2013-03-01 10:08:00,64.3,48.3,30.30,SSE,160,0.0,1.0,56,0.00,,,0.00,WeatherCatV1.10B1784,2013-03-01 18:08:00,
2013-03-01 10:13:00,64.8,49.2,30.30,SSE,160,1.0,2.0,57,0.00,,,0.00,WeatherCatV1.10B1784,2013-03-01 18:13:00,
2013-03-01 10:18:00,65.4,48.8,30.30,SSE,155,0.0,2.0,55,0.00,,,0.00,WeatherCatV1.10B1784,2013-03-01 18:18:00,
2013-03-01 10:23:00,65.9,49.3,30.30,SSE,150,0.0,2.0,55,0.00,,,0.00,WeatherCatV1.10B1784,2013-03-01 18:23:00,
2013-03-01 10:28:00,66.5,48.8,30.30,SE,133,0.0,0.0,53,0.00,,,0.00,WeatherCatV1.10B1784,2013-03-01 18:28:00,
2013-03-01 10:33:00,66.9,49.2,30.30,SSE,160,0.0,3.0,53,0.00,,,0.00,WeatherCatV1.10B1784,2013-03-01 18:33:00,
2013-03-01 10:38:00,67.5,49.2,30.30,South,179,0.0,3.0,52,0.00,,,0.00,WeatherCatV1.10B1784,2013-03-01 18:38:00,
2013-03-01 10:43:00,67.9,48.6,30.30,SSE,158,1.0,2.0,50,0.00,,,0.00,WeatherCatV1.10B1784,2013-03-01 18:43:00,
2013-03-01 10:48:00,67.8,50.0,30.30,SSE,157,0.0,1.0,53,0.00,,,0.00,WeatherCatV1.10B1784,2013-03-01 18:48:00,
2013-03-01 10:53:00,68.4,49.6,30.30,SSE,152,0.0,2.0,51,0.00,,,0.00,WeatherCatV1.10B1784,2013-03-01 18:53:00,
2013-03-01 10:58:00,69.0,50.1,30.30,SSE,150,0.0,2.0,51,0.00,,,0.00,WeatherCatV1.10B1784,2013-03-01 18:58:00,
2013-03-01 11:03:00,69.7,49.7,30.29,SSE,153,0.0,1.0,49,0.00,,,0.00,WeatherCatV1.10B1784,2013-03-01 19:03:00,
2013-03-01 11:08:00,70.3,50.2,30.29,SSE,153,0.0,1.0,49,0.00,,,0.00,WeatherCatV1.10B1784,2013-03-01 19:08:00,
2013-03-01 11:13:00,70.5,49.9,30.29,SE,127,1.0,1.0,48,0.00,,,0.00,WeatherCatV1.10B1784,2013-03-01 19:13:00,
2013-03-01 11:18:00,70.1,51.1,30.29,SSE,153,3.0,3.0,51,0.00,,,0.00,WeatherCatV1.10B1784,2013-03-01 19:18:00,
2013-03-01 11:23:00,70.3,49.7,30.29,SE,135,0.0,1.0,48,0.00,,,0.00,WeatherCatV1.10B1784,2013-03-01 19:23:00,
2013-03-01 11:28:00,70.5,50.4,30.29,SE,135,0.0,1.0,49,0.00,,,0.00,WeatherCatV1.10B1784,2013-03-01 19:28:00,
2013-03-01 11:33:00,70.8,50.1,30.28,SE,131,0.0,2.0,48,0.00,,,0.00,WeatherCatV1.10B1784,2013-03-01 19:33:00,
2013-03-01 11:38:00,70.5,51.0,30.28,SE,129,0.0,0.0,50,0.00,,,0.00,WeatherCatV1.10B1784,2013-03-01 19:38:00,
2013-03-01 11:43:00,70.6,50.5,30.28,SE,133,0.0,4.0,49,0.00,,,0.00,WeatherCatV1.10B1784,2013-03-01 19:43:00,
2013-03-01 11:48:00,70.5,49.9,30.28,NNW,334,0.0,1.0,48,0.00,,,0.00,WeatherCatV1.10B1784,2013-03-01 19:48:00,
2013-03-01 11:53:00,70.3,49.7,30.28,SE,131,0.0,1.0,48,0.00,,,0.00,WeatherCatV1.10B1784,2013-03-01 19:53:00,
2013-03-01 11:58:00,70.0,49.9,30.28,SE,138,0.0,2.0,49,0.00,,,0.00,WeatherCatV1.10B1784,2013-03-01 19:58:00,
2013-03-01 12:03:00,70.0,49.9,30.27,NNE,23,0.0,1.0,49,0.00,,,0.00,WeatherCatV1.10B1784,2013-03-01 20:03:00,
2013-03-01 12:08:00,70.4,50.3,30.27,SSE,150,1.0,4.0,49,0.00,,,0.00,WeatherCatV1.10B1784,2013-03-01 20:08:00,
2013-03-01 12:13:00,70.6,49.4,30.27,ENE,59,0.0,2.0,47,0.00,,,0.00,WeatherCatV1.10B1784,2013-03-01 20:13:00,
2013-03-01 12:18:00,70.2,50.1,30.27,SE,133,0.0,4.0,49,0.00,,,0.00,WeatherCatV1.10B1784,2013-03-01 20:18:00,
2013-03-01 12:23:00,70.6,49.9,30.27,SSE,150,1.0,1.0,48,0.00,,,0.00,WeatherCatV1.10B1784,2013-03-01 20:23:00,
2013-03-01 12:28:00,70.5,49.3,30.27,SE,135,2.0,2.0,47,0.00,,,0.00,WeatherCatV1.10B1784,2013-03-01 20:28:00,
2013-03-01 12:33:00,70.3,50.2,30.25,SE,144,3.0,3.0,49,0.00,,,0.00,WeatherCatV1.10B1784,2013-03-01 20:33:00,
2013-03-01 12:38:00,70.2,50.1,30.25,SSE,153,0.0,1.0,49,0.00,,,0.00,WeatherCatV1.10B1784,2013-03-01 20:38:00,
2013-03-01 12:43:00,70.5,50.4,30.25,SSE,160,1.0,1.0,49,0.00,,,0.00,WeatherCatV1.10B1784,2013-03-01 20:43:00,
2013-03-01 12:48:00,70.6,50.5,30.25,SSE,160,0.0,0.0,49,0.00,,,0.00,WeatherCatV1.10B1784,2013-03-01 20:48:00,
2013-03-01 12:53:00,70.3,50.2,30.25,NNW,339,0.0,1.0,49,0.00,,,0.00,WeatherCatV1.10B1784,2013-03-01 20:53:00,
2013-03-01 12:58:00,69.9,49.9,30.25,SSE,165,0.0,1.0,49,0.00,,,0.00,WeatherCatV1.10B1784,2013-03-01 20:58:00,
2013-03-01 13:03:00,69.9,50.4,30.24,SSE,165,0.0,0.0,50,0.00,,,0.00,WeatherCatV1.10B1784,2013-03-01 21:03:00,
2013-03-01 13:08:00,69.9,49.9,30.24,SE,144,1.0,2.0,49,0.00,,,0.00,WeatherCatV1.10B1784,2013-03-01 21:08:00,
2013-03-01 13:13:00,70.0,49.9,30.24,NNW,346,1.0,2.0,49,0.00,,,0.00,WeatherCatV1.10B1784,2013-03-01 21:13:00,
2013-03-01 13:18:00,69.9,49.3,30.23,North,358,0.0,3.0,48,0.00,,,0.00,WeatherCatV1.10B1784,2013-03-01 21:18:00,
2013-03-01 13:23:00,70.1,49.5,30.23,ESE,114,0.0,0.0,48,0.00,,,0.00,WeatherCatV1.10B1784,2013-03-01 21:23:00,
2013-03-01 13:28:00,70.2,50.7,30.23,SE,138,0.0,0.0,50,0.00,,,0.00,WeatherCatV1.10B1784,2013-03-01 21:28:00,
2013-03-01 13:34:00,70.2,50.1,30.23,North,2,0.0,0.0,49,0.00,,,0.00,WeatherCatV1.10B1784,2013-03-01 21:34:00,
2013-03-01 13:39:00,70.2,50.1,30.23,SE,146,0.0,3.0,49,0.00,,,0.00,WeatherCatV1.10B1784,2013-03-01 21:39:00,
2013-03-01 13:44:00,70.0,50.5,30.23,SSE,147,0.0,1.0,50,0.00,,,0.00,WeatherCatV1.10B1784,2013-03-01 21:44:00,
2013-03-01 13:49:00,69.9,49.9,30.23,SSE,151,0.0,2.0,49,0.00,,,0.00,WeatherCatV1.10B1784,2013-03-01 21:49:00,
2013-03-01 13:54:00,69.7,49.7,30.23,North,353,0.0,3.0,49,0.00,,,0.00,WeatherCatV1.10B1784,2013-03-01 21:54:00,
2013-03-01 13:59:00,69.5,50.6,30.23,SE,140,0.0,2.0,51,0.00,,,0.00,WeatherCatV1.10B1784,2013-03-01 21:59:00,
2013-03-01 14:04:00,69.6,50.1,30.22,SE,137,0.0,0.0,50,0.00,,,0.00,WeatherCatV1.10B1784,2013-03-01 22:04:00,
2013-03-01 14:09:00,69.5,50.6,30.22,SE,127,0.0,0.0,51,0.00,,,0.00,WeatherCatV1.10B1784,2013-03-01 22:09:00,
2013-03-01 14:14:00,69.2,49.8,30.22,NE,46,0.0,0.0,50,0.00,,,0.00,WeatherCatV1.10B1784,2013-03-01 22:14:00,
2013-03-01 14:19:00,69.1,50.2,30.21,SSE,154,2.0,2.0,51,0.00,,,0.00,WeatherCatV1.10B1784,2013-03-01 22:19:00,
2013-03-01 14:24:00,69.3,49.8,30.21,SSE,149,0.0,0.0,50,0.00,,,0.00,WeatherCatV1.10B1784,2013-03-01 22:24:00,
2013-03-01 14:29:00,69.3,50.4,30.21,SE,124,0.0,2.0,51,0.00,,,0.00,WeatherCatV1.10B1784,2013-03-01 22:29:00,
2013-03-01 14:34:00,69.4,49.9,30.21,NNW,347,0.0,3.0,50,0.00,,,0.00,WeatherCatV1.10B1784,2013-03-01 22:34:00,
2013-03-01 14:39:00,69.3,49.8,30.21,SE,125,0.0,2.0,50,0.00,,,0.00,WeatherCatV1.10B1784,2013-03-01 22:39:00,
2013-03-01 14:44:00,69.2,49.8,30.21,North,358,0.0,1.0,50,0.00,,,0.00,WeatherCatV1.10B1784,2013-03-01 22:44:00,
2013-03-01 14:49:00,68.9,49.5,30.20,South,170,0.0,0.0,50,0.00,,,0.00,WeatherCatV1.10B1784,2013-03-01 22:49:00,
2013-03-01 14:54:00,68.7,49.8,30.20,NW,311,0.0,0.0,51,0.00,,,0.00,WeatherCatV1.10B1784,2013-03-01 22:54:00,
2013-03-01 14:59:00,68.6,49.7,30.20,SSE,163,0.0,2.0,51,0.00,,,0.00,WeatherCatV1.10B1784,2013-03-01 22:59:00,
2013-03-01 15:04:00,68.5,49.6,30.20,SE,143,1.0,3.0,51,0.00,,,0.00,WeatherCatV1.10B1784,2013-03-01 23:04:00,
2013-03-01 15:09:00,68.6,49.7,30.20,SSE,162,0.0,0.0,51,0.00,,,0.00,WeatherCatV1.10B1784,2013-03-01 23:09:00,
2013-03-01 15:14:00,68.6,49.7,30.20,SE,146,0.0,3.0,51,0.00,,,0.00,WeatherCatV1.10B1784,2013-03-01 23:14:00,
2013-03-01 15:19:00,68.7,49.8,30.20,SSE,153,0.0,0.0,51,0.00,,,0.00,WeatherCatV1.10B1784,2013-03-01 23:19:00,
2013-03-01 15:24:00,68.6,50.3,30.20,SSE,153,0.0,0.0,52,0.00,,,0.00,WeatherCatV1.10B1784,2013-03-01 23:24:00,
2013-03-01 15:29:00,68.3,48.9,30.20,North,349,0.0,4.0,50,0.00,,,0.00,WeatherCatV1.10B1784,2013-03-01 23:29:00,
2013-03-01 15:34:00,67.4,48.6,30.20,NNW,333,2.0,4.0,51,0.00,,,0.00,WeatherCatV1.10B1784,2013-03-01 23:34:00,
2013-03-01 15:39:00,66.7,48.5,30.20,NNW,347,0.0,2.0,52,0.00,,,0.00,WeatherCatV1.10B1784,2013-03-01 23:39:00,
2013-03-01 15:44:00,66.2,48.6,30.20,North,354,1.0,4.0,53,0.00,,,0.00,WeatherCatV1.10B1784,2013-03-01 23:44:00,
2013-03-01 15:49:00,65.7,48.1,30.21,NNW,328,2.0,7.0,53,0.00,,,0.00,WeatherCatV1.10B1784,2013-03-01 23:49:00,
2013-03-01 15:54:00,65.3,48.2,30.21,NNW,332,0.0,3.0,54,0.00,,,0.00,WeatherCatV1.10B1784,2013-03-01 23:54:00,
2013-03-01 15:59:00,65.0,47.9,30.21,North,352,1.0,3.0,54,0.00,,,0.00,WeatherCatV1.10B1784,2013-03-01 23:59:00,
2013-03-01 16:04:00,64.8,48.2,30.20,NNW,333,3.0,6.0,55,0.00,,,0.00,WeatherCatV1.10B1784,2013-03-02 00:04:00,
2013-03-01 16:09:00,64.7,48.6,30.20,NNW,335,3.0,5.0,56,0.00,,,0.00,WeatherCatV1.10B1784,2013-03-02 00:09:00,
2013-03-01 16:14:00,64.5,48.0,30.20,NNW,337,3.0,5.0,55,0.00,,,0.00,WeatherCatV1.10B1784,2013-03-02 00:14:00,
2013-03-01 16:19:00,64.5,48.4,30.20,NNW,335,6.0,7.0,56,0.00,,,0.00,WeatherCatV1.10B1784,2013-03-02 00:19:00,
2013-03-01 16:24:00,64.6,48.1,30.20,NNW,336,3.0,4.0,55,0.00,,,0.00,WeatherCatV1.10B1784,2013-03-02 00:24:00,
2013-03-01 16:29:00,64.5,48.4,30.20,NW,316,3.0,5.0,56,0.00,,,0.00,WeatherCatV1.10B1784,2013-03-02 00:29:00,
2013-03-01 16:34:00,64.4,48.4,30.19,NNW,348,4.0,6.0,56,0.00,,,0.00,WeatherCatV1.10B1784,2013-03-02 00:34:00,
2013-03-01 16:39:00,64.2,48.2,30.19,NNW,336,5.0,5.0,56,0.00,,,0.00,WeatherCatV1.10B1784,2013-03-02 00:39:00,
2013-03-01 16:44:00,64.1,48.1,30.19,NNW,343,4.0,5.0,56,0.00,,,0.00,WeatherCatV1.10B1784,2013-03-02 00:44:00,
2013-03-01 16:46:00,64.0,48.0,30.19,North,353,3.0,6.0,56,0.00,,,0.00,WeatherCatV1.10B1784,2013-03-02 00:46:00,
2013-03-01 16:51:00,63.9,47.9,30.19,NW,318,3.0,5.0,56,0.00,,,0.00,WeatherCatV1.10B1784,2013-03-02 00:51:00,
2013-03-01 16:56:00,63.6,48.1,30.19,NNW,333,4.0,6.0,57,0.00,,,0.00,WeatherCatV1.10B1784,2013-03-02 00:56:00,
2013-03-01 17:01:00,63.5,47.5,30.19,NNW,334,3.0,4.0,56,0.00,,,0.00,WeatherCatV1.10B1784,2013-03-02 01:01:00,
2013-03-01 17:06:00,63.4,47.9,30.19,NNW,348,2.0,3.0,57,0.00,,,0.00,WeatherCatV1.10B1784,2013-03-02 01:06:00,
2013-03-01 17:11:00,63.2,47.7,30.19,NNW,339,2.0,3.0,57,0.00,,,0.00,WeatherCatV1.10B1784,2013-03-02 01:11:00,
2013-03-01 17:16:00,63.0,47.5,30.18,NNW,344,2.0,4.0,57,0.00,,,0.00,WeatherCatV1.10B1784,2013-03-02 01:16:00,
2013-03-01 17:21:00,62.8,47.3,30.18,NNW,345,2.0,4.0,57,0.00,,,0.00,WeatherCatV1.10B1784,2013-03-02 01:21:00,
2013-03-01 17:26:00,62.7,47.2,30.18,NNW,331,3.0,4.0,57,0.00,,,0.00,WeatherCatV1.10B1784,2013-03-02 01:26:00,
2013-03-01 17:31:00,62.5,47.1,30.18,NNW,338,2.0,3.0,57,0.00,,,0.00,WeatherCatV1.10B1784,2013-03-02 01:31:00,
2013-03-01 17:36:00,62.3,46.9,30.18,NNW,330,3.0,4.0,57,0.00,,,0.00,WeatherCatV1.10B1784,2013-03-02 01:36:00,
2013-03-01 17:41:00,62.0,47.0,30.18,NNW,343,0.0,3.0,58,0.00,,,0.00,WeatherCatV1.10B1784,2013-03-02 01:41:00,
2013-03-01 17:46:00,61.7,46.8,30.18,NNW,339,1.0,5.0,58,0.00,,,0.00,WeatherCatV1.10B1784,2013-03-02 01:46:00,
2013-03-01 17:51:00,61.4,46.9,30.18,NNW,335,1.0,4.0,59,0.00,,,0.00,WeatherCatV1.10B1784,2013-03-02 01:51:00,
2013-03-01 17:56:00,61.1,47.1,30.18,NNW,341,1.0,4.0,60,0.00,,,0.00,WeatherCatV1.10B1784,2013-03-02 01:56:00,
2013-03-01 18:01:00,60.8,46.8,30.18,North,358,1.0,5.0,60,0.00,,,0.00,WeatherCatV1.10B1784,2013-03-02 02:01:00,
2013-03-01 18:06:00,60.6,47.1,30.18,NNW,341,4.0,5.0,61,0.00,,,0.00,WeatherCatV1.10B1784,2013-03-02 02:06:00,
2013-03-01 18:11:00,60.4,46.9,30.18,NNW,339,3.0,6.0,61,0.00,,,0.00,WeatherCatV1.10B1784,2013-03-02 02:11:00,
2013-03-01 18:16:00,60.3,46.8,30.19,NNW,331,5.0,5.0,61,0.00,,,0.00,WeatherCatV1.10B1784,2013-03-02 02:16:00,
2013-03-01 18:21:00,60.2,46.7,30.19,NNW,345,4.0,5.0,61,0.00,,,0.00,WeatherCatV1.10B1784,2013-03-02 02:21:00,
2013-03-01 18:26:00,60.2,46.3,30.19,NNW,327,3.0,6.0,60,0.00,,,0.00,WeatherCatV1.10B1784,2013-03-02 02:26:00,
2013-03-01 18:31:00,60.2,46.7,30.19,North,351,3.0,6.0,61,0.00,,,0.00,WeatherCatV1.10B1784,2013-03-02 02:31:00,
2013-03-01 18:36:00,60.0,46.5,30.19,NNW,345,5.0,6.0,61,0.00,,,0.00,WeatherCatV1.10B1784,2013-03-02 02:36:00,
2013-03-01 18:41:00,59.9,46.4,30.19,NNW,344,5.0,9.0,61,0.00,,,0.00,WeatherCatV1.10B1784,2013-03-02 02:41:00,
2013-03-01 18:46:00,59.9,46.0,30.19,NW,323,4.0,7.0,60,0.00,,,0.00,WeatherCatV1.10B1784,2013-03-02 02:46:00,
2013-03-01 18:51:00,60.0,46.1,30.19,NNW,339,3.0,4.0,60,0.00,,,0.00,WeatherCatV1.10B1784,2013-03-02 02:51:00,
2013-03-01 18:56:00,59.9,46.0,30.19,NNW,345,4.0,5.0,60,0.00,,,0.00,WeatherCatV1.10B1784,2013-03-02 02:56:00,
2013-03-01 19:01:00,59.8,45.9,30.20,NNW,336,3.0,5.0,60,0.00,,,0.00,WeatherCatV1.10B1784,2013-03-02 03:01:00,
2013-03-01 19:06:00,59.8,45.9,30.20,NNW,339,2.0,5.0,60,0.00,,,0.00,WeatherCatV1.10B1784,2013-03-02 03:06:00,
2013-03-01 19:11:00,59.8,45.9,30.20,NNW,327,1.0,4.0,60,0.00,,,0.00,WeatherCatV1.10B1784,2013-03-02 03:11:00,
2013-03-01 19:16:00,59.8,45.4,30.20,NNW,344,4.0,6.0,59,0.00,,,0.00,WeatherCatV1.10B1784,2013-03-02 03:16:00,
2013-03-01 19:21:00,59.8,45.4,30.20,NNW,337,2.0,3.0,59,0.00,,,0.00,WeatherCatV1.10B1784,2013-03-02 03:21:00,
2013-03-01 19:26:00,59.7,45.3,30.20,NNW,335,2.0,2.0,59,0.00,,,0.00,WeatherCatV1.10B1784,2013-03-02 03:26:00,
2013-03-01 19:31:00,59.6,45.3,30.19,NNW,337,1.0,2.0,59,0.00,,,0.00,WeatherCatV1.10B1784,2013-03-02 03:31:00,
2013-03-01 19:36:00,59.5,44.7,30.19,NNW,335,2.0,2.0,58,0.00,,,0.00,WeatherCatV1.10B1784,2013-03-02 03:36:00,
2013-03-01 19:41:00,59.5,44.7,30.19,NNW,334,0.0,2.0,58,0.00,,,0.00,WeatherCatV1.10B1784,2013-03-02 03:41:00,
2013-03-01 19:46:00,59.5,44.3,30.19,NNW,337,1.0,2.0,57,0.00,,,0.00,WeatherCatV1.10B1784,2013-03-02 03:46:00,
2013-03-01 19:51:00,59.5,43.8,30.19,NNW,335,0.0,2.0,56,0.00,,,0.00,WeatherCatV1.10B1784,2013-03-02 03:51:00,
2013-03-01 19:56:00,59.4,43.7,30.19,NNW,335,1.0,2.0,56,0.00,,,0.00,WeatherCatV1.10B1784,2013-03-02 03:56:00,
2013-03-01 20:01:00,59.4,43.2,30.20,NNW,331,1.0,2.0,55,0.00,,,0.00,WeatherCatV1.10B1784,2013-03-02 04:01:00,
2013-03-01 20:06:00,59.5,43.3,30.20,NNW,335,2.0,2.0,55,0.00,,,0.00,WeatherCatV1.10B1784,2013-03-02 04:06:00,
2013-03-01 20:11:00,59.6,42.9,30.20,NNW,333,1.0,3.0,54,0.00,,,0.00,WeatherCatV1.10B1784,2013-03-02 04:11:00,
2013-03-01 20:16:00,59.6,42.4,30.20,NNW,333,0.0,1.0,53,0.00,,,0.00,WeatherCatV1.10B1784,2013-03-02 04:16:00,
2013-03-01 20:21:00,59.7,42.5,30.20,NNW,333,0.0,0.0,53,0.00,,,0.00,WeatherCatV1.10B1784,2013-03-02 04:21:00,
2013-03-01 20:26:00,59.7,43.0,30.20,NNW,333,0.0,0.0,54,0.00,,,0.00,WeatherCatV1.10B1784,2013-03-02 04:26:00,
2013-03-01 20:31:00,59.6,42.9,30.21,North,356,0.0,1.0,54,0.00,,,0.00,WeatherCatV1.10B1784,2013-03-02 04:31:00,
2013-03-01 20:36:00,59.6,43.4,30.21,North,354,1.0,1.0,55,0.00,,,0.00,WeatherCatV1.10B1784,2013-03-02 04:36:00,
2013-03-01 20:41:00,59.5,43.8,30.21,NNW,332,1.0,2.0,56,0.00,,,0.00,WeatherCatV1.10B1784,2013-03-02 04:41:00,
2013-03-01 20:46:00,59.1,43.9,30.21,NNW,333,2.0,3.0,57,0.00,,,0.00,WeatherCatV1.10B1784,2013-03-02 04:46:00,
2013-03-01 20:51:00,59.0,43.8,30.21,NNW,333,2.0,3.0,57,0.00,,,0.00,WeatherCatV1.10B1784,2013-03-02 04:51:00,
2013-03-01 20:56:00,58.8,44.1,30.21,NNW,333,1.0,2.0,58,0.00,,,0.00,WeatherCatV1.10B1784,2013-03-02 04:56:00,
2013-03-01 21:00:00,58.7,44.0,30.20,NNW,333,1.0,1.0,58,0.00,,,0.00,WeatherCatV1.10B1784,2013-03-02 05:00:00,
2013-03-01 21:05:00,58.6,43.9,30.20,NNW,333,1.0,1.0,58,0.00,,,0.00,WeatherCatV1.10B1784,2013-03-02 05:05:00,
2013-03-01 21:10:00,58.5,43.8,30.20,NNW,333,0.0,1.0,58,0.00,,,0.00,WeatherCatV1.10B1784,2013-03-02 05:10:00,
2013-03-01 21:15:00,58.5,43.8,30.20,NNW,333,0.0,1.0,58,0.00,,,0.00,WeatherCatV1.10B1784,2013-03-02 05:15:00,
2013-03-01 21:20:00,58.4,43.7,30.20,NNW,333,0.0,0.0,58,0.00,,,0.00,WeatherCatV1.10B1784,2013-03-02 05:20:00,
2013-03-01 21:25:00,58.4,44.1,30.20,NNW,333,0.0,0.0,59,0.00,,,0.00,WeatherCatV1.10B1784,2013-03-02 05:25:00,
2013-03-01 21:30:00,58.4,43.7,30.20,NNW,333,0.0,0.0,58,0.00,,,0.00,WeatherCatV1.10B1784,2013-03-02 05:30:00,
2013-03-01 21:35:00,58.4,43.7,30.20,NNW,333,0.0,0.0,58,0.00,,,0.00,WeatherCatV1.10B1784,2013-03-02 05:35:00,
2013-03-01 21:40:00,58.4,43.7,30.20,NNW,333,0.0,0.0,58,0.00,,,0.00,WeatherCatV1.10B1784,2013-03-02 05:40:00,
2013-03-01 21:45:00,58.3,42.7,30.20,NNW,333,0.0,0.0,56,0.00,,,0.00,WeatherCatV1.10B1784,2013-03-02 05:45:00,
2013-03-01 21:50:00,58.3,42.2,30.20,NNW,333,0.0,0.0,55,0.00,,,0.00,WeatherCatV1.10B1784,2013-03-02 05:50:00,
2013-03-01 21:55:00,58.3,42.7,30.20,NNW,333,0.0,0.0,56,0.00,,,0.00,WeatherCatV1.10B1784,2013-03-02 05:55:00,
2013-03-01 22:00:00,58.5,42.4,30.20,West,262,0.0,0.0,55,0.00,,,0.00,WeatherCatV1.10B1784,2013-03-02 06:00:00,
2013-03-01 22:05:00,58.8,41.7,30.20,West,260,0.0,0.0,53,0.00,,,0.00,WeatherCatV1.10B1784,2013-03-02 06:05:00,
2013-03-01 22:10:00,59.1,42.0,30.20,West,273,0.0,1.0,53,0.00,,,0.00,WeatherCatV1.10B1784,2013-03-02 06:10:00,
2013-03-01 22:15:00,59.3,42.2,30.20,NW,326,0.0,0.0,53,0.00,,,0.00,WeatherCatV1.10B1784,2013-03-02 06:15:00,
2013-03-01 22:20:00,59.4,41.8,30.20,NW,326,0.0,0.0,52,0.00,,,0.00,WeatherCatV1.10B1784,2013-03-02 06:20:00,
2013-03-01 22:25:00,59.4,41.8,30.20,NNW,333,0.0,1.0,52,0.00,,,0.00,WeatherCatV1.10B1784,2013-03-02 06:25:00,
2013-03-01 22:30:00,59.6,40.9,30.20,NW,325,0.0,1.0,50,0.00,,,0.00,WeatherCatV1.10B1784,2013-03-02 06:30:00,
2013-03-01 22:35:00,59.8,41.1,30.20,NNW,335,0.0,0.0,50,0.00,,,0.00,WeatherCatV1.10B1784,2013-03-02 06:35:00,
2013-03-01 22:40:00,60.0,40.8,30.20,NNW,335,0.0,1.0,49,0.00,,,0.00,WeatherCatV1.10B1784,2013-03-02 06:40:00,
2013-03-01 22:45:00,60.2,41.0,30.20,NNW,335,0.0,0.0,49,0.00,,,0.00,WeatherCatV1.10B1784,2013-03-02 06:45:00,
2013-03-01 22:50:00,60.3,41.1,30.20,NNW,335,0.0,1.0,49,0.00,,,0.00,WeatherCatV1.10B1784,2013-03-02 06:50:00,
2013-03-01 22:55:00,60.3,41.1,30.20,NW,319,0.0,0.0,49,0.00,,,0.00,WeatherCatV1.10B1784,2013-03-02 06:55:00,
2013-03-01 23:00:00,60.3,41.1,30.19,NW,321,0.0,0.0,49,0.00,,,0.00,WeatherCatV1.10B1784,2013-03-02 07:00:00,
2013-03-01 23:05:00,60.4,40.6,30.19,WSW,253,0.0,0.0,48,0.00,,,0.00,WeatherCatV1.10B1784,2013-03-02 07:05:00,
2013-03-01 23:10:00,60.5,40.7,30.19,WSW,255,0.0,0.0,48,0.00,,,0.00,WeatherCatV1.10B1784,2013-03-02 07:10:00,
2013-03-01 23:15:00,60.5,40.7,30.19,WSW,256,0.0,0.0,48,0.00,,,0.00,WeatherCatV1.10B1784,2013-03-02 07:15:00,
2013-03-01 23:20:00,60.7,40.9,30.19,SW,235,0.0,0.0,48,0.00,,,0.00,WeatherCatV1.10B1784,2013-03-02 07:20:00,
2013-03-01 23:25:00,61.0,40.6,30.19,SSW,196,0.0,0.0,47,0.00,,,0.00,WeatherCatV1.10B1784,2013-03-02 07:25:00,
2013-03-01 23:30:00,61.2,40.8,30.18,SSW,196,0.0,0.0,47,0.00,,,0.00,WeatherCatV1.10B1784,2013-03-02 07:30:00,
2013-03-01 23:35:00,61.2,40.8,30.18,WNW,293,0.0,0.0,47,0.00,,,0.00,WeatherCatV1.10B1784,2013-03-02 07:35:00,
2013-03-01 23:40:00,61.3,41.4,30.18,NNW,335,0.0,0.0,48,0.00,,,0.00,WeatherCatV1.10B1784,2013-03-02 07:40:00,
2013-03-01 23:45:00,61.3,41.4,30.18,NNW,335,0.0,0.0,48,0.00,,,0.00,WeatherCatV1.10B1784,2013-03-02 07:45:00,
2013-03-01 23:50:00,61.3,41.4,30.18,NNW,335,0.0,0.0,48,0.00,,,0.00,WeatherCatV1.10B1784,2013-03-02 07:50:00,
2013-03-01 23:55:00,61.4,41.5,30.18,NNW,335,0.0,0.0,48,0.00,,,0.00,WeatherCatV1.10B1784,2013-03-02 07:55:00,